GFSFLT1_925_thetae_087.txt.gz
Theta_e
320 318 319 321 323 329 335 341 339 339 339 336 334 332 332 332 332 331 332 330 330 329 329 328 329 328 329 328 326 325 326 326
320 319 319 322 326 332 336 340 338 339 337 333 332 331 331 331 329 329 330 330 329 328 328 327 328 328 328 328 327 325 326 325
321 320 320 323 329 333 336 339 338 338 334 333 332 331 330 331 331 329 328 329 328 328 328 329 328 327 327 327 326 325 324 325
321 321 320 324 329 333 336 338 338 337 334 333 331 330 329 329 329 328 331 330 329 327 327 327 327 327 326 326 326 325 325 324
321 322 321 323 329 332 335 337 337 336 334 333 331 330 329 328 328 329 330 329 329 328 327 327 326 325 325 325 325 325 324 325
321 321 321 320 326 330 335 336 335 336 334 332 331 329 328 327 328 328 328 327 325 325 325 326 325 325 325 325 324 325 324 325
324 323 322 320 324 331 336 335 335 333 333 332 331 329 327 327 328 328 327 325 323 322 323 325 325 324 323 324 323 321 324 324
330 328 325 323 326 332 336 334 335 332 333 332 330 328 327 326 328 327 325 323 322 321 322 323 323 323 322 323 323 323 324 324
326 331 328 326 326 332 334 331 331 330 332 332 330 327 326 326 328 326 326 324 321 321 320 320 321 322 322 322 323 324 324 324
322 325 328 328 330 331 329 329 329 330 333 331 328 327 326 325 327 327 325 325 323 322 320 319 320 320 321 321 322 322 322 323
316 320 325 329 331 328 327 328 328 329 332 329 326 326 325 325 326 326 326 326 324 323 321 320 319 319 320 320 320 320 320 321
310 311 313 329 328 326 326 327 327 328 329 326 325 325 325 325 325 325 325 325 325 325 322 320 319 319 319 318 317 316 315 315
306 306 307 323 327 327 327 327 326 326 326 324 324 324 325 324 323 324 324 324 323 322 324 321 320 319 317 316 316 315 315 316
304 303 303 305 313 325 325 324 324 324 325 323 324 323 323 322 322 323 324 323 323 324 323 321 320 319 318 317 316 316 315 315
301 299 299 299 302 306 309 323 324 323 322 322 322 322 322 322 321 323 323 322 322 321 322 322 321 320 319 318 317 315 314 313
298 297 297 296 297 299 301 304 312 317 315 314 313 318 320 320 319 319 320 320 320 321 321 320 320 319 318 318 318 317 317 317
296 295 294 294 294 295 297 298 301 304 305 304 305 306 309 310 313 312 313 314 314 314 314 312 308 308 311 317 319 318 319 318
295 293 292 292 292 293 293 294 296 297 298 299 300 300 300 299 300 303 303 303 305 303 300 300 300 302 305 309 315 313 311 310
295 293 291 291 290 291 291 292 292 293 294 295 295 295 294 294 294 293 293 295 294 294 293 294 295 295 299 303 306 305 301 297

GFSFLT1_925_thetae_090.txt.gz
Theta_e
320 320 320 320 319 322 343 343 343 342 341 341 339 336 332 333 333 333 333 333 333 332 331 331 330 330 329 329 327 326 326 327
320 321 321 321 319 321 344 343 342 341 341 339 337 334 332 332 331 331 330 332 332 331 331 331 329 329 329 328 328 327 326 327
320 321 321 321 321 324 343 343 341 341 341 337 335 334 332 331 328 329 329 332 331 330 330 329 328 328 329 328 327 325 326 325
320 322 322 322 325 331 341 343 340 340 340 336 334 332 332 331 330 329 328 330 331 330 329 329 328 328 328 328 327 325 325 325
319 321 323 322 327 331 338 342 339 340 337 336 334 332 331 330 330 329 329 330 329 329 328 328 327 328 328 328 327 325 324 325
320 320 323 322 327 332 335 340 339 338 336 336 334 332 330 329 330 330 330 330 329 329 328 328 327 327 327 327 327 326 324 324
328 328 324 321 326 333 335 339 338 338 335 336 333 332 330 329 329 328 328 327 325 324 326 327 328 326 326 326 326 326 324 324
326 327 330 327 325 333 336 338 338 338 336 335 333 332 329 329 329 328 327 324 322 324 323 322 324 325 325 325 325 326 324 324
324 325 326 324 329 336 337 337 336 336 335 334 333 331 329 329 329 327 326 325 323 322 321 322 323 324 324 324 324 325 323 322
320 320 320 320 331 336 337 336 335 334 334 333 332 330 328 327 329 327 325 324 323 322 320 321 321 322 323 323 323 322 322 321
314 315 314 323 332 332 332 332 332 331 333 334 331 328 327 327 327 325 326 325 324 321 321 320 320 321 322 322 323 323 322 322
310 309 307 309 320 329 329 329 329 330 331 332 328 328 326 325 327 327 326 326 325 323 322 320 319 320 320 321 322 322 323 322
306 304 303 304 305 310 327 328 328 329 330 327 327 325 324 325 326 326 326 326 325 324 322 321 319 319 319 320 321 321 320 319
303 301 300 300 300 302 306 327 327 326 325 325 324 325 324 324 325 324 324 324 323 322 323 322 320 319 319 319 319 319 317 316
301 298 297 297 297 298 300 306 324 325 324 324 324 323 323 322 323 324 324 323 323 324 322 322 321 319 318 317 317 317 316 315
298 296 295 295 295 295 296 298 306 315 316 315 316 321 321 320 322 321 321 321 321 321 320 318 317 317 317 318 317 316 315 315
295 294 294 293 293 293 294 295 298 303 305 305 309 311 311 309 311 313 315 314 314 314 313 310 309 309 312 317 316 317 317 316
293 293 292 291 291 291 292 293 294 296 297 298 301 301 301 301 301 303 301 302 304 301 300 303 303 303 306 309 311 311 309 305
292 291 291 290 290 290 290 291 292 292 293 294 294 295 294 294 294 293 293 293 294 293 293 293 294 294 299 303 306 303 299 296

GFSFLT1_925_thetae_093.txt.gz
Theta_e
315 316 317 318 318 318 331 344 344 341 342 341 340 337 335 336 335 334 334 333 334 333 332 332 332 331 330 330 328 327 325 327
313 315 318 317 318 317 331 342 342 341 340 340 337 335 335 334 334 332 332 332 333 333 332 331 331 330 330 329 327 326 326 326
313 314 317 319 318 318 335 342 342 341 340 339 337 336 334 332 333 331 331 332 333 332 331 331 330 329 329 329 328 327 326 326
314 315 316 319 319 321 340 342 341 340 340 337 336 334 332 331 330 329 329 329 331 331 331 331 330 329 329 328 328 327 326 326
317 314 316 318 320 329 340 341 340 339 340 337 336 332 331 330 329 328 328 328 329 330 330 329 329 329 328 328 328 326 325 325
323 324 325 322 322 340 341 340 339 339 338 336 335 332 331 331 329 329 327 328 329 329 330 329 329 328 327 328 327 325 324 324
322 323 323 324 325 338 340 339 339 338 336 336 333 332 330 330 330 329 329 329 329 329 329 328 327 326 326 328 327 326 324 324
320 319 319 320 320 325 339 338 338 337 336 336 333 333 331 329 328 329 330 330 328 327 326 327 328 327 326 326 327 326 324 324
315 315 314 314 323 329 335 337 337 335 335 335 334 332 330 329 329 328 328 326 325 324 323 324 325 325 326 326 326 326 325 324
311 310 310 309 313 330 335 336 335 335 334 335 333 332 330 328 328 328 326 325 324 322 323 320 321 322 324 325 325 325 325 324
307 306 305 305 308 315 331 332 332 334 334 334 332 331 328 329 328 327 326 324 323 321 320 320 320 321 322 323 324 324 325 324
304 302 301 301 303 307 314 329 328 331 332 333 332 328 327 328 327 326 325 324 323 323 320 318 320 320 321 322 323 323 322 322
300 299 299 299 299 301 304 314 329 329 331 331 328 327 326 326 325 325 326 326 324 323 321 320 320 320 320 321 322 322 322 322
298 297 297 297 297 298 300 303 315 328 328 327 326 325 324 324 325 327 326 326 325 324 322 321 320 320 320 320 321 321 320 321
296 295 295 295 295 295 297 299 307 323 325 324 324 324 324 324 324 324 324 324 323 324 323 321 320 319 319 319 319 320 320 319
295 294 294 293 293 294 295 296 300 307 313 318 317 322 321 322 323 323 322 323 321 321 321 319 318 318 318 318 318 317 317 316
293 293 292 292 292 293 293 294 296 298 300 302 306 315 317 315 314 313 316 314 313 314 312 312 312 313 316 317 317 316 316 315
292 291 291 291 290 291 292 292 293 293 294 295 296 298 302 305 304 303 304 303 303 302 302 304 304 304 308 314 316 313 311 309
290 290 290 289 289 290 291 291 291 291 291 291 292 292 292 294 296 294 293 295 294 294 293 293 295 295 300 305 308 304 300 298

GFSFLT1_925_thetae_096.txt.gz
Theta_e
310 313 314 314 314 316 325 335 342 343 341 340 341 341 341 340 339 339 339 337 336 336 335 334 332 331 330 330 330 328 328 326
309 311 313 313 315 314 330 338 342 342 339 338 338 338 338 337 336 334 336 336 334 334 334 333 332 332 330 330 329 327 327 327
310 310 312 313 314 315 324 337 341 341 340 339 337 336 336 335 334 335 333 334 332 333 332 332 332 331 330 329 328 326 326 326
312 311 310 313 314 316 324 336 340 340 340 339 337 334 334 335 335 333 332 331 330 331 331 332 331 331 331 330 328 327 326 326
322 321 322 322 322 316 322 336 339 340 339 337 335 334 333 332 332 332 330 329 330 331 332 331 330 330 329 329 328 327 326 326
320 320 319 319 321 324 329 338 340 339 338 337 335 334 332 331 331 331 329 328 328 328 330 331 330 330 329 328 328 326 326 326
315 314 315 315 316 324 337 339 340 338 336 335 336 332 330 329 329 329 328 327 326 327 328 329 329 328 328 328 327 326 325 325
312 310 310 311 312 315 328 339 338 337 336 334 333 332 330 330 329 327 327 326 326 326 328 328 328 328 328 327 327 327 326 325
307 308 307 307 309 312 325 337 337 335 334 333 332 331 331 330 329 328 328 327 327 327 328 328 328 327 326 327 326 327 326 325
304 304 304 303 305 308 315 335 336 335 334 332 332 332 330 329 328 328 328 328 328 328 326 325 324 324 325 325 326 325 326 324
302 302 301 301 302 304 309 324 332 332 331 332 331 331 330 329 328 328 329 328 325 324 324 324 320 319 321 322 323 324 325 324
299 299 299 299 299 300 303 308 321 325 327 330 330 329 329 328 328 327 327 325 324 323 322 321 319 320 319 321 322 323 324 324
296 297 296 297 297 297 300 302 311 321 319 328 330 327 328 328 327 326 326 324 323 322 321 320 319 318 319 321 322 323 323 323
295 294 295 295 295 296 297 298 302 316 326 328 326 326 327 327 326 325 325 324 324 323 321 319 319 319 319 320 321 322 322 322
294 293 293 293 293 294 295 296 299 307 324 324 324 325 325 325 325 326 326 325 324 323 321 320 319 319 318 319 320 320 319 320
293 293 292 292 292 292 294 295 297 299 304 312 314 322 323 324 324 323 323 324 322 321 320 319 318 318 318 318 319 318 318 318
292 291 291 291 291 291 292 293 295 295 297 298 302 308 312 313 317 317 316 315 315 317 315 314 312 313 316 317 317 317 316 316
291 290 290 290 290 290 290 291 292 293 292 293 294 296 297 299 300 304 305 303 304 303 304 305 304 304 307 313 316 315 313 311
289 289 289 289 289 289 289 289 290 291 291 291 291 291 291 292 293 292 294 295 295 295 294 295 295 293 298 301 308 308 304 301

GFSFLT1_925_thetae_099.txt.gz
Theta_e
307 309 311 311 312 311 315 333 342 343 343 342 340 338 338 337 337 337 337 337 337 336 336 335 336 333 331 330 330 329 328 328
307 309 311 311 311 312 312 332 339 341 340 339 338 338 339 339 340 339 339 339 338 336 336 335 334 333 329 329 329 329 328 328
307 309 309 309 311 312 312 322 338 340 339 339 338 338 337 337 338 339 339 339 338 336 336 335 333 331 328 327 328 327 327 327
319 318 316 318 315 311 312 320 334 339 339 338 337 336 335 335 336 337 338 337 337 335 332 333 332 333 328 326 329 328 327 327
315 314 314 315 315 317 318 320 334 338 339 337 336 335 334 334 334 334 334 334 334 332 331 330 332 333 330 327 328 327 326 325
313 311 311 311 311 313 320 321 333 337 339 338 336 335 334 333 333 332 334 333 333 329 328 330 329 331 332 328 326 326 326 326
309 309 309 309 309 310 313 327 335 337 338 337 336 335 332 330 330 332 331 330 329 329 329 329 330 329 328 328 326 326 325 326
307 306 306 305 306 306 309 319 337 338 338 337 335 333 331 331 330 330 328 329 329 328 327 327 328 328 327 329 328 327 326 326
304 303 303 302 303 305 306 313 337 337 336 335 334 332 332 330 331 329 328 328 327 326 326 327 326 329 329 327 327 327 326 326
300 301 300 300 301 302 304 309 334 336 335 333 332 330 330 329 329 329 328 327 325 325 325 325 327 328 327 327 326 326 326 325
298 298 298 298 298 301 302 306 313 331 332 331 329 328 329 329 329 328 327 327 326 326 326 326 327 325 324 324 325 325 325 324
296 296 295 296 296 298 300 302 307 314 327 329 329 328 327 328 328 328 327 327 327 327 326 324 323 322 322 321 319 320 321 323
295 294 294 294 294 296 298 299 302 306 319 326 327 323 326 327 326 327 326 326 326 323 322 321 320 321 319 319 319 321 322 322
294 293 293 293 293 294 295 297 299 302 316 324 325 322 324 326 325 326 326 325 323 322 322 321 320 319 318 318 320 321 321 321
293 292 292 292 292 292 294 295 297 299 306 321 325 326 325 325 325 325 325 323 322 322 322 321 319 318 319 318 320 320 320 320
292 291 291 291 291 291 292 293 295 296 298 300 305 316 322 323 324 324 324 323 322 322 321 319 318 317 318 318 318 318 317 317
291 290 290 290 290 290 290 291 293 293 293 293 295 300 307 311 311 313 316 317 316 318 316 314 314 313 315 318 317 316 316 314
290 289 290 289 288 289 289 289 290 291 292 292 291 292 292 297 299 302 301 302 304 306 304 305 306 307 310 316 315 314 312 308
289 288 288 288 287 287 287 287 288 289 290 290 292 292 289 289 291 291 292 293 292 292 293 294 294 294 301 308 310 306 302 300

GFSFLT1_925_thetae_105.txt.gz
Theta_e
313 317 316 316 317 317 311 307 308 323 333 336 336 335 334 332 331 332 334 339 340 340 339 336 335 334 334 334 333 333 331 330
317 315 314 314 315 316 317 316 308 313 332 336 335 335 334 333 333 334 336 336 338 337 337 336 336 334 331 332 332 331 329 329
315 313 312 312 312 313 313 316 317 315 324 333 334 334 334 335 334 334 333 333 333 335 335 334 334 333 330 330 330 329 329 328
312 311 310 309 309 309 310 312 314 317 320 331 335 335 335 335 334 334 334 333 332 333 334 333 333 332 330 332 330 330 328 328
308 308 307 306 306 306 307 308 311 314 319 328 334 334 334 334 335 335 335 335 333 333 333 333 332 333 332 331 331 330 328 328
305 305 303 304 303 303 304 305 308 312 315 321 334 335 334 335 337 336 335 334 333 332 333 333 333 333 332 331 329 329 329 328
303 302 301 302 302 301 301 302 304 308 312 317 329 334 334 335 335 336 334 332 332 333 333 333 333 334 332 330 329 329 328 327
302 301 300 299 299 298 298 299 301 305 309 315 324 334 333 334 334 335 333 332 333 332 333 332 334 334 332 329 328 328 327 327
300 299 298 297 296 296 296 297 299 303 306 311 325 332 333 333 334 334 332 331 331 331 332 332 333 332 329 328 328 327 327 326
297 297 296 296 294 294 295 296 298 301 305 310 331 333 333 332 333 333 332 330 330 330 331 332 331 330 329 328 327 327 325 326
296 296 294 294 293 293 294 295 297 300 303 308 327 334 333 331 331 332 331 330 330 329 329 329 328 327 328 327 327 326 326 325
296 294 293 292 292 292 293 294 295 298 300 305 322 331 331 329 329 329 329 328 327 327 327 327 327 326 325 326 325 324 324 325
294 293 292 291 291 291 292 292 294 296 298 303 321 326 328 328 327 327 326 326 326 326 325 327 326 325 325 325 325 324 324 322
292 292 291 290 290 290 290 291 292 295 296 299 305 312 322 325 325 325 325 325 325 325 326 325 324 323 324 324 322 321 321 321
292 291 291 289 289 289 289 289 290 293 295 296 296 298 304 317 324 323 324 323 323 323 322 323 324 323 321 320 319 319 318 318
291 290 290 288 288 287 287 288 288 290 293 294 293 296 298 304 312 318 322 323 321 320 321 321 321 319 319 318 318 318 318 317
289 289 288 288 287 286 286 287 287 288 290 291 292 293 295 293 297 298 299 310 313 311 315 316 315 312 315 317 317 317 315 313
288 288 287 287 286 285 285 285 285 286 287 288 290 291 292 292 292 291 291 293 297 299 299 304 302 302 306 312 313 313 310 306
287 287 286 285 284 284 284 284 284 284 285 285 286 288 289 291 293 290 289 289 289 290 291 292 293 292 297 301 302 302 300 297

GFSFLT1_925_thetae_108.txt.gz
Theta_e
319 319 319 320 320 321 322 322 321 315 322 332 334 337 338 340 339 338 337 336 336 336 337 337 336 336 337 337 336 336 336 335
319 319 318 319 319 319 319 321 322 322 315 324 331 336 336 335 338 338 337 337 336 336 337 337 335 335 335 335 335 335 333 333
318 317 316 316 316 316 316 317 318 320 321 318 327 331 333 333 335 337 337 336 335 336 336 336 335 335 334 335 334 332 332 332
316 314 313 313 313 313 313 314 314 316 319 321 322 329 332 333 334 335 335 336 334 334 335 336 335 336 334 333 333 332 331 330
313 312 311 310 310 310 310 311 311 312 315 319 323 326 332 332 333 333 334 335 336 335 335 336 336 335 334 333 332 334 332 330
311 310 308 308 308 308 308 308 308 310 310 313 317 323 329 332 332 333 334 334 334 336 335 335 335 334 333 333 332 334 333 332
310 308 306 306 305 305 305 304 305 306 307 309 312 317 324 332 332 334 334 335 334 335 334 335 334 333 333 332 334 334 332 332
308 306 305 304 303 302 301 300 300 302 302 305 309 312 320 327 334 335 335 336 334 334 334 334 333 333 334 335 334 333 332 331
306 304 303 302 301 300 298 296 297 298 299 302 305 308 313 326 332 333 335 335 334 333 333 334 334 334 334 334 334 333 332 331
304 303 301 299 298 297 294 294 294 295 297 299 302 306 312 326 332 333 334 335 334 332 332 333 332 333 333 332 333 331 330 330
303 302 299 297 296 295 292 292 293 294 296 298 302 305 314 330 333 333 333 334 334 332 332 332 331 331 331 332 331 330 329 330
301 300 298 296 295 293 292 291 291 292 295 298 301 310 329 331 332 333 332 333 332 332 331 330 330 330 330 330 328 329 329 329
300 298 296 294 293 292 290 289 290 291 294 297 300 306 319 329 331 331 331 332 331 330 330 329 329 328 329 328 328 328 328 328
298 297 295 292 290 289 288 288 289 290 293 296 298 300 302 314 325 327 328 328 328 328 328 328 328 328 328 327 327 326 326 326
296 295 294 291 289 288 287 287 288 289 291 293 295 295 297 301 311 320 324 325 325 326 326 326 326 325 325 325 324 323 322 323
293 293 293 290 289 287 286 286 287 287 289 290 291 293 293 301 299 308 318 321 322 323 323 324 322 322 323 323 323 322 320 318
292 291 291 289 288 287 286 286 285 286 287 288 290 291 291 292 292 293 297 302 303 312 309 312 314 314 318 320 321 318 316 314
290 290 289 288 287 287 286 285 285 285 285 286 287 288 290 290 291 290 290 291 292 294 293 295 297 302 311 315 316 313 308 304
289 288 287 287 286 286 286 286 285 285 285 285 285 286 287 288 289 289 288 287 288 290 290 292 292 292 299 305 308 303 297 294

GFSFLT1_925_thetae_111.txt.gz
Theta_e
318 320 321 321 321 322 322 323 324 326 324 320 330 334 337 339 340 341 340 340 341 341 341 341 340 340 340 340 340 339 339 337
320 320 321 321 321 321 321 321 322 323 324 323 320 330 333 336 338 339 342 341 340 340 340 339 339 339 339 339 339 337 337 337
320 319 318 318 318 318 317 318 319 320 321 323 324 322 327 330 334 336 339 341 340 340 339 338 339 337 338 337 337 337 337 337
318 317 316 315 315 315 314 315 315 316 317 319 322 324 323 328 333 333 335 339 341 340 338 339 338 337 337 337 336 335 335 336
316 316 315 314 313 313 312 313 313 313 314 316 318 321 325 323 330 331 333 336 339 339 339 337 339 337 337 336 335 336 335 332
315 314 312 311 311 310 310 310 310 310 310 312 314 316 319 324 326 332 333 334 337 337 337 337 338 337 337 336 335 335 334 333
314 311 310 310 309 308 308 307 306 306 306 307 308 310 312 317 322 328 335 334 336 336 336 335 336 338 336 337 336 334 334 334
313 311 310 308 307 306 305 304 303 303 303 303 304 305 308 311 316 323 329 334 336 336 334 336 336 337 336 336 336 334 334 335
310 309 307 306 304 304 303 301 300 299 300 300 300 300 303 307 312 318 326 333 334 336 334 335 335 336 336 336 335 334 333 335
309 307 306 304 303 302 300 298 297 297 296 296 296 298 301 304 308 314 321 330 333 337 334 334 335 335 336 336 335 336 335 334
307 306 304 302 301 300 298 296 295 294 294 293 294 297 300 303 306 310 320 331 333 336 336 334 334 335 335 335 336 336 335 334
306 304 302 300 298 297 295 293 293 292 291 291 294 297 300 304 312 316 324 332 332 334 335 334 333 334 334 334 334 334 333 332
304 303 300 298 296 294 293 291 290 289 289 291 293 296 298 303 310 326 328 329 331 332 334 333 332 333 332 332 333 333 331 331
302 301 299 296 294 293 291 290 288 288 289 290 291 294 295 297 303 317 323 328 330 330 332 333 332 331 330 332 333 331 330 330
299 299 297 295 293 291 290 288 287 287 288 289 289 291 292 294 296 299 313 321 327 330 331 331 330 330 329 330 330 330 328 327
297 296 295 293 291 290 290 288 286 286 287 288 288 290 291 292 292 294 299 308 310 317 324 327 328 328 329 329 329 328 326 325
294 293 292 290 289 289 289 288 287 286 286 287 287 288 289 290 291 291 291 293 296 299 302 307 311 321 325 325 324 322 321 318
291 291 290 289 288 288 288 287 287 287 287 287 287 287 287 287 288 289 289 287 289 289 292 294 294 295 312 323 321 314 308 306
289 288 288 287 287 287 287 287 287 287 287 287 287 287 287 286 285 286 286 286 286 286 286 289 293 291 292 294 309 302 299 296

GFSFLT1_925_thetae_114.txt.gz
Theta_e
320 321 322 322 322 322 323 323 323 324 324 324 321 322 334 341 341 340 341 341 340 343 343 344 340 341 342 341 341 341 340 338
321 321 321 321 321 320 320 320 321 321 322 323 325 325 322 334 339 341 341 342 343 342 343 344 342 340 339 340 341 340 340 339
321 319 318 318 317 316 316 316 316 317 318 319 320 321 324 325 324 330 338 341 342 342 343 343 343 340 338 339 341 340 339 338
319 317 317 316 315 314 314 314 314 314 314 315 317 319 321 325 325 324 334 338 341 341 342 342 342 340 338 337 340 339 337 336
317 316 315 313 313 312 312 312 311 311 310 311 313 315 317 319 321 323 326 331 332 339 338 341 341 340 338 336 337 338 336 335
316 314 312 312 311 310 309 309 309 308 307 308 308 310 311 312 313 316 319 324 328 334 338 340 340 340 339 336 335 337 335 334
314 312 311 310 308 307 307 306 306 305 304 304 304 306 306 307 309 312 315 319 325 333 337 337 339 338 338 337 336 336 335 335
311 310 309 308 307 306 305 304 302 301 301 301 301 301 302 303 305 308 311 314 319 327 334 334 337 337 336 337 338 336 335 334
309 308 307 306 305 303 302 300 299 298 298 297 297 298 299 300 301 303 307 311 316 320 331 333 335 335 334 334 335 337 336 335
307 306 305 304 303 301 299 298 296 295 295 294 294 295 296 297 298 300 303 306 310 315 321 331 335 336 334 334 336 336 336 335
306 305 304 302 300 298 296 295 294 292 292 292 292 294 294 296 299 300 303 304 307 313 318 329 335 335 335 335 335 334 334 335
304 304 302 300 298 296 294 293 292 290 289 289 290 292 293 295 297 299 302 307 309 311 318 327 333 334 335 335 335 334 334 334
303 302 300 298 296 294 293 291 289 288 288 289 290 290 291 294 295 297 300 306 319 316 321 329 332 333 333 334 334 334 334 333
300 300 298 296 294 292 291 291 289 287 287 288 289 289 290 291 293 295 296 303 314 322 329 330 331 332 331 334 334 334 335 334
298 297 295 293 291 291 290 290 288 287 287 288 288 288 288 289 292 292 295 295 301 312 322 327 329 331 332 332 333 333 333 332
295 294 292 291 290 289 289 288 288 288 288 288 288 288 288 288 289 290 291 292 293 295 304 308 316 322 323 331 331 332 332 328
293 292 290 289 289 288 288 288 288 288 288 288 288 287 287 286 286 287 288 289 288 290 293 293 295 297 312 329 330 330 322 323
290 290 289 288 288 287 287 287 287 287 288 288 288 288 287 286 285 285 285 285 287 286 287 289 290 291 296 310 311 311 308 305
288 288 287 287 287 287 286 287 287 287 287 287 287 288 288 287 286 285 284 284 284 284 285 286 287 289 291 291 291 294 293 293

GFSFLT1_925_thetae_117.txt.gz
Theta_e
320 321 321 321 320 319 319 319 319 320 320 321 322 324 324 322 327 338 339 340 341 341 344 342 343 342 342 342 341 340 339 338
320 318 317 317 316 316 315 315 315 315 315 316 316 317 320 322 323 326 335 338 340 341 342 342 342 341 340 342 342 340 340 338
317 316 316 315 314 314 313 312 312 312 312 312 313 314 317 318 321 324 325 326 328 338 340 341 340 341 339 339 341 340 340 340
316 314 313 312 311 311 310 310 310 309 308 308 309 311 313 314 316 317 320 322 324 329 337 337 339 339 339 337 338 340 339 339
312 310 309 309 308 308 308 307 306 305 305 304 304 306 308 308 309 310 313 316 318 321 324 334 337 337 336 335 335 336 338 337
309 308 308 307 306 306 305 304 303 302 301 301 301 302 303 304 305 306 308 311 313 314 317 323 333 336 336 335 334 336 336 336
307 307 306 305 304 303 303 301 300 299 298 298 298 298 299 300 301 302 303 306 309 311 313 316 322 335 335 336 335 335 336 336
306 305 303 303 301 300 299 297 296 296 295 296 295 296 296 297 298 300 301 302 304 308 310 313 318 327 334 335 334 335 335 335
304 302 301 300 298 297 296 295 294 293 292 292 293 293 294 295 296 297 299 300 302 303 305 309 313 319 330 333 333 332 335 335
303 301 300 298 297 295 294 293 292 291 290 290 290 291 292 293 294 295 296 298 300 302 304 306 310 314 321 332 332 331 334 336
302 300 298 296 295 293 292 292 290 289 288 289 289 290 291 292 293 294 296 298 299 301 303 305 307 312 318 330 330 330 332 334
299 298 297 294 293 292 291 290 290 288 288 288 289 290 290 291 292 293 295 296 298 300 303 307 308 310 316 329 330 329 331 332
297 296 294 292 291 291 290 289 289 288 288 288 289 289 289 290 290 291 293 294 295 299 304 308 312 311 316 327 333 331 331 331
295 293 292 291 290 289 289 288 288 288 288 288 288 288 288 288 289 290 290 291 293 296 301 307 314 314 317 325 331 331 333 331
294 292 291 290 289 288 288 287 287 287 288 288 288 288 287 287 287 287 288 289 290 292 295 298 311 317 324 328 329 328 329 331
292 291 289 288 288 287 287 287 287 287 287 288 288 288 287 286 285 285 285 287 288 290 291 292 298 305 311 321 325 327 328 331
290 289 288 287 287 287 287 287 286 287 287 287 287 287 287 287 286 285 285 285 286 288 288 289 290 291 301 319 323 327 326 323
288 287 287 287 287 286 286 286 286 286 286 286 286 287 287 287 286 285 285 285 285 285 286 286 288 290 289 296 306 298 297 298
286 286 286 286 286 286 286 286 285 285 285 285 285 285 286 286 286 286 285 284 284 285 285 285 285 286 289 288 288 288 290 290

GFSFLT1_925_thetae_120.txt.gz
Theta_e
318 317 316 315 315 315 315 315 314 315 316 317 317 318 319 320 320 321 324 331 332 327 338 338 339 341 341 342 342 341 341 338
315 314 314 313 312 312 312 311 310 311 310 310 312 311 312 316 316 317 319 322 325 329 336 338 337 337 338 339 341 340 339 338
313 311 310 309 309 309 308 308 307 307 307 306 305 306 309 309 311 312 314 316 317 318 323 331 336 337 337 336 336 337 339 337
310 308 307 306 306 306 305 305 304 304 303 303 304 306 306 307 307 308 308 309 310 311 314 317 323 333 335 335 335 335 335 335
307 305 304 304 303 303 302 302 301 300 300 299 299 299 300 301 301 302 305 306 308 309 310 311 314 318 329 336 335 333 334 332
306 305 302 301 300 299 299 298 297 296 297 297 297 296 296 297 298 299 300 303 304 305 307 308 310 313 316 328 336 335 333 331
304 302 300 298 297 297 296 295 294 293 293 293 294 294 295 295 295 296 298 299 300 302 304 305 307 310 315 320 332 334 334 330
302 300 299 297 295 294 294 293 292 291 291 291 291 292 292 293 295 295 296 297 298 299 300 301 303 305 310 314 321 334 333 331
302 299 297 295 294 292 292 291 290 290 289 289 289 290 290 291 293 294 295 296 296 297 298 300 301 303 305 309 312 325 334 333
300 297 295 294 292 291 290 290 290 289 288 288 288 289 290 291 291 292 293 294 295 297 298 299 301 302 304 308 312 315 330 332
298 296 294 292 291 290 289 289 289 288 288 288 288 289 290 290 291 291 292 293 294 296 297 298 300 302 303 305 309 314 324 331
295 293 292 290 289 289 288 288 288 287 288 288 288 289 289 289 290 290 291 291 292 293 294 296 298 301 304 306 309 312 317 329
293 291 290 289 288 288 287 287 287 287 288 288 288 288 288 288 288 288 288 289 290 291 292 295 298 301 305 307 309 312 316 327
291 290 289 288 288 287 287 287 287 287 287 288 288 288 287 287 286 286 287 287 288 289 290 293 295 298 301 311 312 312 316 325
291 289 288 288 287 287 286 287 286 287 287 287 287 287 287 287 286 286 286 286 286 287 288 290 291 293 295 302 313 314 317 326
290 289 288 287 287 286 286 286 286 286 286 286 286 286 286 287 286 285 285 285 285 286 287 287 289 289 292 300 312 319 320 326
289 288 287 286 286 286 286 285 285 285 285 285 284 284 285 285 285 285 284 283 284 285 286 286 287 288 290 299 312 309 309 308
287 286 285 285 285 285 285 284 283 283 283 283 283 283 283 284 283 284 283 283 283 283 285 286 286 286 288 289 296 293 293 294
284 284 284 284 285 285 285 284 282 281 281 281 282 282 281 282 282 282 282 282 282 282 283 284 286 286 286 288 288 288 288 290

GFSFLT1_925_thetae_123.txt.gz
Theta_e
313 311 312 312 311 311 311 311 312 313 313 314 314 314 312 313 315 317 316 321 328 331 329 328 326 327 334 336 338 339 339 338
309 308 308 307 307 307 307 307 306 308 309 309 309 309 309 309 310 310 310 312 315 316 325 327 327 328 328 334 336 338 338 337
308 305 304 303 302 302 301 301 301 301 302 302 304 304 306 306 307 306 307 307 307 308 311 313 319 327 327 328 335 336 336 336
305 303 301 300 299 298 298 297 297 296 298 299 301 303 303 303 303 302 302 303 304 305 306 308 310 312 316 325 334 334 334 334
302 301 300 298 297 296 295 295 294 294 295 295 296 296 296 298 298 299 300 301 302 302 304 305 306 308 311 314 320 333 331 328
301 300 298 296 294 294 294 293 293 292 292 293 293 293 294 295 296 297 298 300 299 300 301 302 303 304 307 311 315 319 332 328
300 299 298 296 294 293 292 292 291 290 291 291 291 291 292 292 293 294 295 296 297 298 298 298 299 301 303 306 311 317 326 332
299 298 296 295 293 292 291 290 290 289 289 289 289 289 290 290 291 292 293 294 296 296 296 297 298 300 301 302 304 307 311 325
299 297 295 293 292 291 289 289 289 289 288 289 289 289 289 290 291 291 292 293 294 295 296 297 298 299 300 301 303 306 309 313
298 296 294 292 291 290 289 288 288 288 288 288 288 288 289 290 290 291 291 292 293 294 294 295 296 298 299 300 301 303 307 311
296 293 292 290 289 288 288 287 288 288 288 288 288 288 288 288 289 289 290 290 290 291 292 293 294 295 297 299 302 303 304 309
293 291 290 289 288 287 287 287 287 287 287 288 288 288 288 287 287 287 288 288 288 290 291 292 292 294 296 299 301 303 304 308
290 289 288 289 287 287 287 287 287 287 286 287 287 287 287 287 287 286 286 287 287 288 289 290 291 293 294 297 300 304 307 309
289 289 288 288 287 287 287 286 286 286 286 286 286 286 286 286 286 285 285 285 286 287 288 288 289 290 291 293 296 299 303 308
290 289 288 287 287 287 286 286 285 285 285 284 284 284 285 284 284 284 284 284 284 285 286 287 287 288 289 290 292 296 301 312
289 288 287 286 286 286 285 285 284 284 283 283 283 283 283 283 283 283 283 283 283 283 284 286 287 287 288 289 296 300 302 312
288 287 286 286 285 284 283 282 282 282 282 282 282 283 282 282 282 282 282 282 282 282 283 285 286 286 287 288 291 294 297 299
286 286 285 285 285 284 284 282 280 280 280 280 280 282 281 280 281 281 280 281 281 282 282 284 285 285 286 287 287 288 289 290
285 284 284 284 285 285 285 283 281 280 279 279 278 278 279 280 280 279 279 280 280 281 281 282 283 284 285 285 286 286 286 287

GFSFLT1_925_thetae_126.txt.gz
Theta_e
305 304 303 303 303 302 302 302 303 305 307 309 309 310 311 313 314 314 316 318 320 323 327 328 328 328 328 329 328 331 334 336
302 300 299 299 299 300 299 299 298 300 301 302 304 303 306 307 306 306 307 308 309 311 315 321 322 326 327 326 327 328 328 333
301 299 298 297 296 295 295 295 296 296 297 297 297 300 303 304 302 301 303 303 305 306 307 309 311 315 321 326 327 326 326 327
299 298 296 295 295 294 294 294 294 293 295 296 297 298 299 300 299 298 299 301 302 303 304 305 307 308 311 314 323 327 327 329
300 298 297 295 294 293 293 293 292 292 292 293 292 291 292 294 294 295 297 298 299 300 301 302 303 304 307 309 313 318 326 326
300 299 297 295 294 292 292 292 291 291 291 291 290 289 289 290 291 293 294 295 296 297 298 298 299 301 302 304 307 311 315 321
299 298 296 295 293 292 291 290 290 290 289 289 289 289 289 290 291 292 293 293 294 295 296 296 296 298 299 301 303 305 309 315
301 299 297 295 293 291 290 289 289 289 289 289 289 289 289 289 290 291 291 292 293 293 294 295 296 297 298 300 301 302 304 306
300 297 294 292 290 289 289 288 289 288 288 288 288 288 289 289 289 289 290 291 292 292 293 294 294 296 297 298 300 301 302 303
297 294 292 290 289 288 287 287 288 287 287 288 288 288 288 288 288 288 289 289 290 291 290 292 293 294 295 296 298 300 301 302
294 291 290 289 288 287 287 287 287 287 287 287 287 288 287 287 287 287 287 288 288 288 289 290 291 292 293 294 296 298 301 302
290 289 289 288 287 287 287 287 287 286 286 286 286 286 286 287 286 285 286 286 286 287 288 289 290 291 292 294 296 298 300 302
288 288 288 287 287 287 287 286 286 285 285 285 285 285 285 285 285 284 284 284 285 285 286 288 289 289 289 291 293 294 297 300
288 288 288 287 287 287 286 286 285 285 284 284 284 283 283 283 283 283 283 283 284 284 285 287 287 288 289 289 290 291 293 296
289 288 287 287 286 286 284 284 284 283 283 283 282 282 282 282 282 282 282 282 282 283 284 285 286 287 287 288 289 291 293 294
289 288 286 286 285 283 282 281 282 282 282 282 281 281 282 282 281 281 281 281 282 282 282 284 285 286 286 287 288 291 292 297
288 286 285 285 284 284 284 281 280 280 279 279 280 280 280 281 281 280 280 281 281 281 281 282 284 284 284 285 286 287 288 289
287 285 284 285 285 284 283 281 280 279 279 278 278 278 278 278 279 279 279 280 280 280 280 281 281 284 283 284 284 285 285 286
284 284 284 284 285 284 283 281 280 279 279 278 278 278 278 278 278 278 279 279 280 279 279 280 280 282 282 282 283 283 283 284